Amsterdam, Netherlands

2:11 PM CET on December 08, 2019 (GMT +0100)
Schiphol

Weather History for EHAM - October, 2019

Change the Weather History Date:

Tuesday, October 15, 2019

  Actual Average Record
Temperature  
Mean Temperature 58 °F -  
Max Temperature 62 °F 52 °F 72 °F (2018)
Min Temperature 55 °F 42 °F 35 °F (2011)
Degree Days  
Heating Degree Days 6    
Growing Degree Days 8 (Base 50)    
Moisture  
Dew Point 56 °F    
Average Humidity 86    
Maximum Humidity 94    
Minimum Humidity 73    
Precipitation  
Precipitation 0.00 in - - ()
Sea Level Pressure  
Sea Level Pressure 29.68 in    
Wind  
Wind Speed 9 mph ()    
Max Wind Speed 14 mph    
Max Gust Speed -    
Visibility 8.3 miles    
Events Rain    
Averages and records for this station are not official NWS values.
T = Trace of Precipitation, MM = Missing Value Source: Averaged Metar Reports

Daily Weather History Graph

Daily Weather History Graph

Search for Another Location

Airport or City:

Astronomy

Oct. 15, 2019 Rise Set
Actual Time 8:05 AM CEST 6:47 PM CEST
Civil Twilight 7:31 AM CEST 7:21 PM CEST
Nautical Twilight 6:51 AM CEST 8:00 PM CEST
Astronomical Twilight 6:12 AM CEST 8:40 PM CEST
Moon 7:51 PM CEST (10/15) 9:24 AM CEST (10/15)
Length of Visible Light 11h 50m
Length of Day
10h 41m
Full, 98% of the Moon is Illuminated
Oct 15
Full
Oct 21
Last Quarter
Oct 28
New
Nov 4
First Quarter
Nov 12
Full

Hourly Weather History & Observations

Time (CEST) Temp. Dew Point Humidity Pressure Visibility Wind Dir Wind Speed Gust Speed Precip Events Conditions
12:25 AM 62.6 °F 59.0 °F 88% 29.62 in - SE 9.2 mph - N/A   Clear
12:55 AM 62.6 °F 59.0 °F 88% 29.62 in - SSE 10.4 mph - N/A   Clear
1:00 AM 62 °F 58 °F 84% 29.65 in 13 mi SE 11.2 mph - -   Partly Cloudy
1:25 AM 62.6 °F 57.2 °F 82% 29.62 in - SE 12.7 mph - N/A   Clear
1:55 AM 62.6 °F 57.2 °F 82% 29.62 in - SSE 11.5 mph - N/A   Clear
2:25 AM 62.6 °F 57.2 °F 82% 29.62 in - SSE 12.7 mph - N/A   Clear
2:55 AM 62.6 °F 57.2 °F 82% 29.65 in - South 12.7 mph - N/A   Clear
3:00 AM 62 °F 58 °F 81% 29.65 in 16 mi South 11.2 mph - -   Partly Cloudy
3:25 AM 60.8 °F 57.2 °F 88% 29.62 in - South 12.7 mph - N/A   Clear
3:55 AM 60.8 °F 57.2 °F 88% 29.62 in 6.2 mi SSW 9.2 mph - N/A   Partly Cloudy
4:00 AM 61 °F 57 °F 81% 29.65 in 19 mi SSW 11.2 mph - -   Partly Cloudy
4:25 AM 60.8 °F 55.4 °F 82% 29.65 in 6.2 mi SSW 12.7 mph - N/A   Mostly Cloudy
4:55 AM 60.8 °F 55.4 °F 82% 29.65 in 6.2 mi SSW 12.7 mph - N/A   Mostly Cloudy
5:25 AM 59.0 °F 55.4 °F 88% 29.65 in 6.2 mi South 9.2 mph - N/A   Scattered Clouds
5:55 AM 59.0 °F 55.4 °F 88% 29.65 in 6.2 mi South 6.9 mph - N/A   Partly Cloudy
6:00 AM 58 °F 55 °F 88% 29.66 in 28 mi South 8.9 mph - -   Partly Cloudy
6:25 AM 59.0 °F 55.4 °F 88% 29.65 in 6.2 mi South 6.9 mph - N/A   Partly Cloudy
6:55 AM 59.0 °F 55.4 °F 88% 29.62 in 6.2 mi South 9.2 mph - N/A   Partly Cloudy
7:25 AM 59.0 °F 55.4 °F 88% 29.62 in 6.2 mi South 8.1 mph - N/A Rain Light Rain
7:55 AM 59.0 °F 55.4 °F 88% 29.65 in 6.2 mi South 8.1 mph - N/A   Partly Cloudy
8:00 AM 58 °F 56 °F 90% 29.67 in 16 mi South 8.9 mph - - Rain Rain
8:25 AM 59.0 °F 55.4 °F 88% 29.65 in 6.2 mi South 6.9 mph - N/A   Partly Cloudy
8:55 AM 59.0 °F 57.2 °F 94% 29.65 in 6.2 mi SSE 8.1 mph - N/A Rain Light Rain
9:25 AM 59.0 °F 57.2 °F 94% 29.65 in 6.2 mi South 9.2 mph - N/A   Partly Cloudy
9:55 AM 59.0 °F 57.2 °F 94% 29.65 in 6.2 mi SSW 9.2 mph - N/A   Partly Cloudy
10:00 AM 59 °F 57 °F 89% 29.68 in 12 mi SSW 8.9 mph - - Rain Drizzle
10:25 AM 60.8 °F 57.2 °F 88% 29.68 in 6.2 mi SSW 11.5 mph - N/A   Partly Cloudy
10:55 AM 60.8 °F 55.4 °F 82% 29.68 in 6.2 mi SSW 11.5 mph - N/A Rain Light Rain
11:00 AM 60 °F 56 °F 83% 29.70 in 16 mi SSW 13.4 mph - -   Partly Cloudy
11:25 AM 60.8 °F 57.2 °F 88% 29.68 in 6.2 mi South 10.4 mph - N/A   Partly Cloudy
11:55 AM 60.8 °F 57.2 °F 88% 29.65 in 6.2 mi South 6.9 mph - N/A   Scattered Clouds
12:00 PM 61 °F 57 °F 81% 29.68 in 19 mi South 8.9 mph - - Rain Rain
12:25 PM 60.8 °F 55.4 °F 82% 29.68 in 6.2 mi SSW 12.7 mph - N/A   Scattered Clouds
12:55 PM 60.8 °F 55.4 °F 82% 29.68 in 6.2 mi SSW 10.4 mph - N/A   Scattered Clouds
1:25 PM 60.8 °F 55.4 °F 82% 29.68 in 6.2 mi SSW 13.8 mph - N/A   Scattered Clouds
1:55 PM 60.8 °F 55.4 °F 82% 29.68 in 6.2 mi SSW 10.4 mph - N/A   Partly Cloudy
2:00 PM 61 °F 56 °F 79% 29.69 in 17 mi SSW 11.2 mph - -   Partly Cloudy
2:25 PM 62.6 °F 55.4 °F 77% 29.68 in 6.2 mi SSW 9.2 mph - N/A   Scattered Clouds
2:55 PM 60.8 °F 55.4 °F 82% 29.68 in 6.2 mi SSW 9.2 mph - N/A   Scattered Clouds
3:00 PM 61 °F 56 °F 77% 29.69 in 25 mi SSW 11.2 mph - -   Partly Cloudy
3:25 PM 60.8 °F 55.4 °F 82% 29.68 in 6.2 mi SSW 10.4 mph - N/A   Partly Cloudy
3:55 PM 60.8 °F 53.6 °F 77% 29.68 in 6.2 mi SW 12.7 mph - N/A   Scattered Clouds
4:00 PM 61 °F 54 °F 73% 29.70 in 28 mi SW 11.2 mph - -   Partly Cloudy
4:25 PM 60.8 °F 53.6 °F 77% 29.68 in 6.2 mi SSW 12.7 mph - N/A Rain Light Rain
4:55 PM 59.0 °F 53.6 °F 82% 29.68 in 6.2 mi SSW 10.4 mph - N/A Rain Light Rain
5:00 PM 60 °F 54 °F 75% 29.70 in 19 mi SSW 11.2 mph - - Rain Light Rain Showers
5:25 PM 59.0 °F 55.4 °F 88% 29.68 in 6.2 mi SSW 9.2 mph - N/A Rain Light Rain
5:55 PM 59.0 °F 55.4 °F 88% 29.68 in 6.2 mi South 8.1 mph - N/A Rain Light Rain
6:00 PM 59 °F 56 °F 85% 29.70 in 19 mi South 6.7 mph - - Rain Light Drizzle
6:25 PM 59.0 °F 55.4 °F 88% 29.68 in 6.2 mi South 6.9 mph - N/A   Partly Cloudy
6:55 PM 57.2 °F 55.4 °F 94% 29.68 in 6.2 mi South 5.8 mph - N/A   Partly Cloudy
7:00 PM 57 °F 55 °F 90% 29.70 in 15 mi South 6.7 mph - - Rain Drizzle
7:25 PM 57.2 °F 55.4 °F 94% 29.71 in 6.2 mi South 6.9 mph - N/A   Scattered Clouds
7:55 PM 57.2 °F 55.4 °F 94% 29.71 in 6.2 mi South 5.8 mph - N/A   Scattered Clouds
8:00 PM 58 °F 55 °F 86% 29.72 in 12 mi South 6.7 mph - -   Partly Cloudy
8:25 PM 57.2 °F 55.4 °F 94% 29.71 in 5.0 mi SSW 9.2 mph - N/A Rain Light Rain Showers
8:55 PM 57.2 °F 55.4 °F 94% 29.71 in 6.2 mi SSW 6.9 mph - N/A   Scattered Clouds
9:25 PM 57.2 °F 55.4 °F 94% 29.71 in 6.2 mi South 9.2 mph - N/A   Scattered Clouds
9:55 PM 57.2 °F 55.4 °F 94% 29.71 in 3.7 mi SW 12.7 mph - N/A Rain Light Rain Showers
10:00 PM 56 °F 55 °F 94% 29.74 in 3 mi SW 13.4 mph - - Rain Heavy Drizzle
10:25 PM 57.2 °F 53.6 °F 88% 29.74 in 6.2 mi SSW 10.4 mph - N/A   Mostly Cloudy
10:55 PM 57.2 °F 55.4 °F 94% 29.74 in 6.2 mi SW 10.4 mph - N/A Rain Light Rain Showers
11:00 PM 56 °F 55 °F 94% 29.76 in 9 mi SW 8.9 mph - - Rain Drizzle
11:25 PM 55.4 °F 53.6 °F 94% 29.74 in 6.2 mi WSW 5.8 mph - N/A Rain Light Rain Showers
11:55 PM 55.4 °F 53.6 °F 94% 29.74 in 6.2 mi SW 5.8 mph - N/A Rain Light Rain Showers